Location: Bennemühlen
(52.5740°N, 9.7135°E)
Time: 02:34:14
(UTC+00:00)

Vanguard 2 Rocket - Pass Details

Date: 24 February 2026
Orbit: 553 x 3286 km, 32.9° (Epoch: 8 March)

Event Time Altitude Azimuth Distance (km) Brightness Sun altitude
Rises 13:40:38 0° 261° (W) 7,244 12.1 22.5°
Reaches altitude 10° 13:46:29 10° 253° (WSW) 6,092 12.1 22.0°
Maximum altitude 14:01:09 31° 201° (SSW) 3,807 11.8 20.6°
Drops below altitude 10° 14:11:39 10° 145° (SE) 4,326 10.6 19.6°
Sets 14:14:59 0° 135° (SE) 4,956 10.7 19.3°
